Simultaneous Nadir Overpasses (SNOs) Predictions

Prediction of SNOs between NOAA-20 and METOP-B Satellite Orbit:

Table of predicted SNOs for the next 14.0 days since TLE Epoch: 11/2/2024
Index Date (NOAA-20) Time (NOAA-20) Lat,Lon (NOAA-20) SZA (NOAA-20 ) Date (METOP-B) Time (METOP-B) Lat,Lon (METOP-B) SZA (METOP-B ) Distance(km) Time Diff (sec)
1 11/02/2024 07:04:14 74.25, 62.11 89.22 11/02/2024 07:05:20 74.18, 65.02 89.06 88.52 66
2 11/02/2024 07:54:56 -74.17,-130.39 90.85 11/02/2024 07:56:03 -74.11,-127.81 90.99 78.72 67
3 11/02/2024 08:45:37 73.91, 37.57 88.88 11/02/2024 08:46:48 73.84, 38.87 88.77 40.86 71
4 11/02/2024 09:36:19 -73.84,-154.93 91.19 11/02/2024 09:37:31 -73.78,-153.95 91.29 31.28 72
5 11/02/2024 10:27:01 73.62, 12.89 88.59 11/02/2024 10:28:14 73.60, 12.99 88.57 3.24 73
6 11/02/2024 11:17:44 -73.59,-179.74 91.43 11/02/2024 11:18:56 -73.59,-179.71 91.44 0.79 72
7 11/02/2024 12:08:30 73.57, -12.38 88.57 11/02/2024 12:09:36 73.57, -12.44 88.55 1.80 66
8 11/02/2024 12:59:14 -73.60, 154.87 91.40 11/02/2024 13:00:17 -73.61, 154.98 91.40 3.38 63
9 11/02/2024 13:50:00 73.58, -37.77 88.59 11/02/2024 13:50:57 73.58, -37.74 88.59 0.86 57
10 11/02/2024 14:40:43 -73.56, 129.60 91.42 11/02/2024 14:41:39 -73.57, 129.56 91.42 2.03 56
11 11/02/2024 15:31:30 73.59, -63.16 88.62 11/02/2024 15:32:18 73.60, -63.05 88.62 3.52 48
12 11/02/2024 16:22:13 -73.56, 104.21 91.39 11/02/2024 16:23:00 -73.58, 104.25 91.38 2.62 47
13 11/02/2024 17:12:59 73.54, -88.43 88.60 11/02/2024 17:13:40 73.56, -88.47 88.61 2.35 41
14 11/02/2024 18:03:43 -73.57, 78.82 91.37 11/02/2024 18:04:22 -73.55, 78.83 91.39 2.39 39
15 11/02/2024 18:54:29 73.55,-113.82 88.63 11/02/2024 18:55:01 73.57,-113.78 88.65 2.97 32
16 11/02/2024 19:45:13 -73.58, 53.43 91.34 11/02/2024 19:45:43 -73.56, 53.52 91.36 3.07 30
17 11/02/2024 20:35:59 73.55,-139.21 88.66 11/02/2024 20:36:23 73.54,-139.21 88.63 2.05 24
18 11/02/2024 21:26:42 -73.53, 28.16 91.36 11/02/2024 21:27:05 -73.52, 28.10 91.37 2.16 23
19 11/02/2024 22:17:28 73.56,-164.60 88.68 11/02/2024 22:17:43 73.55,-164.51 88.67 2.92 15
20 11/02/2024 23:08:11 -73.54, 2.77 91.33 11/02/2024 23:08:25 -73.54, 2.79 91.34 0.51 14
21 11/02/2024 23:58:57 73.52, 170.13 88.66 11/02/2024 23:59:05 73.51, 170.06 88.66 2.09 8
22 11/03/2024 00:49:41 -73.54, -22.62 91.31 11/03/2024 00:49:46 -73.55, -22.52 91.30 3.14 5
23 11/03/2024 01:40:27 73.52, 144.74 88.69 11/03/2024 01:40:26 73.53, 144.75 88.69 0.59 1
24 11/03/2024 02:31:10 -73.50, -47.89 91.33 11/03/2024 02:31:08 -73.52, -47.94 91.31 2.28 2
25 11/03/2024 03:21:57 73.53, 119.35 88.72 11/03/2024 03:21:47 73.54, 119.45 88.73 3.21 10
26 11/03/2024 04:12:40 -73.51, -73.28 91.30 11/03/2024 04:12:29 -73.53, -73.25 91.28 2.58 11
27 11/03/2024 05:03:26 73.49, 94.08 88.69 11/03/2024 05:03:09 73.50, 94.02 88.71 2.47 17
28 11/03/2024 05:54:10 -73.51, -98.67 91.27 11/03/2024 05:53:51 -73.49, -98.67 91.29 2.36 19
29 11/03/2024 06:44:56 73.49, 68.69 88.72 11/03/2024 06:44:30 73.52, 68.71 88.75 2.77 26
30 11/03/2024 07:35:40 -73.52,-124.06 91.24 11/03/2024 07:35:12 -73.51,-123.98 91.26 2.85 28
31 11/03/2024 08:26:26 73.50, 43.30 88.75 11/03/2024 08:25:52 73.48, 43.29 88.73 2.19 34
32 11/03/2024 09:17:09 -73.48,-149.33 91.27 11/03/2024 09:16:34 -73.47,-149.40 91.27 2.39 35
33 11/03/2024 10:07:56 73.50, 17.91 88.78 11/03/2024 10:07:13 73.49, 17.98 88.77 2.75 43
34 11/03/2024 10:58:39 -73.48,-174.72 91.24 11/03/2024 10:57:55 -73.48,-174.71 91.24 0.27 44
35 11/03/2024 11:49:25 73.46, -7.37 88.75 11/03/2024 11:48:35 73.46, -7.44 88.76 2.40 50
36 11/03/2024 12:40:09 -73.49, 159.89 91.21 11/03/2024 12:39:16 -73.50, 159.98 91.20 2.88 53
37 11/03/2024 13:30:55 73.47, -32.76 88.78 11/03/2024 13:29:56 73.47, -32.75 88.79 0.23 59
38 11/03/2024 14:21:38 -73.45, 134.61 91.24 11/03/2024 14:20:38 -73.46, 134.56 91.21 2.36 60
39 11/03/2024 15:12:25 73.47, -58.15 88.81 11/03/2024 15:11:17 73.48, -58.06 88.82 2.87 68
40 11/03/2024 16:03:08 -73.45, 109.22 91.21 11/03/2024 16:01:59 -73.47, 109.25 91.18 2.35 69
41 11/03/2024 16:53:54 73.43, -83.42 88.79 11/03/2024 16:52:39 73.44, -83.48 88.81 2.45 75
42 11/03/2024 17:44:36 -73.36, 84.06 91.28 11/03/2024 17:43:22 -73.39, 83.71 91.24 11.47 74
43 11/03/2024 18:35:17 73.09,-108.03 88.44 11/03/2024 18:34:07 73.10,-109.56 88.52 49.61 70
44 11/03/2024 19:26:00 -73.06, 59.33 91.57 11/03/2024 19:24:50 -73.05, 57.64 91.53 54.99 70
45 11/03/2024 20:16:41 72.79,-132.77 88.15 11/03/2024 20:15:35 72.76,-135.62 88.22 93.69 66
46 11/03/2024 21:07:23 -72.72, 34.69 91.91 11/03/2024 21:06:17 -72.76, 31.69 91.78 98.96 66



Historial Predications of SNOs between NOAA-20 and METOP-B
